Location: Gesvres
(49.0440°N, 2.8518°E)
Time: 09:04:31
(UTC+00:00)

Cosmos 1455 Rocket - Pass Details

Date: 28 January 2023
Orbit: 603 x 628 km, 82.5° (Epoch: 23 March)

Event Time Altitude Azimuth Distance (km) Brightness Sun altitude
Rises 17:32:12 0° 348° (NNW) 2,899 6.5 -8.9°
Reaches altitude 10° 17:34:27 10° 345° (NNW) 1,985 5.6 -9.3°
Maximum altitude 17:38:48 67° 264° (W) 664 3.5 -10.0°
Drops below altitude 10° 17:43:06 10° 182° (S) 1,954 5.8 -10.7°
Sets 17:45:18 0° 179° (S) 2,850 6.7 -11.0°
